1285113627560,109.118
1285113687560,109.222
1285113747560,109.332
1285113807560,109.002
1285113867560,109.190
1285113927560,109.279
1285113987560,109.249
1285114047560,109.148
1285114107560,109.604
1285114167560,109.503
1285114227560,109.223
1285114287560,109.457
1285114347560,109.223
1285114407560,109.440
1285114467560,109.383
1285114527560,109.581
1285114587560,109.373
1285114647560,109.523
1285114707560,109.537
1285114767560,109.341
1285114827560,109.486
1285114887560,109.485
1285114947560,109.593
1285115007560,109.436
1285115067560,109.544
1285115127560,109.402
1285115187560,109.588
1285115247560,109.534
1285115307560,109.433
1285115367560,109.357
1285115427560,109.541
1285115487560,109.577
1285115547560,109.338
1285115607560,109.723
1285115667560,109.680
1285115727560,109.545
1285115787560,109.847
1285115847560,109.730
1285115907560,109.659
1285115967560,109.574
1285116027560,109.591
1285116087560,109.797
1285116147560,109.714
1285116207560,109.566
1285116267560,109.811
1285116327560,109.645
1285116387560,109.593
1285116447560,109.875
1285116507560,109.726
1285116567560,109.816
1285116627560,109.534
1285116687560,109.500
1285116747560,109.616
1285116807560,109.592
1285116867560,109.583
1285116927560,109.628
1285116987560,109.568
1285117047560,109.729
1285117107560,109.588
1285117167560,110.043
1285117227571,109.475
1285117287571,109.651
1285117347571,109.755
1285117407571,109.667
1285117467571,109.613
1285117527571,109.825
1285117587571,109.862
1285117647571,109.879
1285117707571,109.837
1285117767571,109.858
1285117827571,109.479
1285117887571,109.780
1285117947571,109.890
1285118007571,109.571
1285118067571,109.583
1285118127571,109.766
1285118187571,109.668
1285118247571,109.797
1285118307571,109.556
1285118367571,109.681
1285118427571,109.828
1285118487571,109.545
1285118547571,109.924
1285118607571,109.822
1285118667571,109.953
1285118727571,109.891
1285118787571,109.927
1285118847571,109.695
1285118907571,109.940
1285118967571,110.041
1285119027571,109.718
1285119087571,109.969
1285119147571,109.754
1285119207571,110.084
1285119267571,110.014
1285119327571,109.774
1285119387571,109.871
1285119447571,109.864
1285119507571,109.772
1285119567571,109.849
1285119627571,110.150
1285119687571,109.786
1285119747571,109.661
1285119807571,109.998
1285119867571,109.913
1285119927571,109.858
1285119987571,109.847
1285120047571,109.734
1285120107571,109.961
1285120167571,110.077
1285120227571,109.956
1285120287571,110.106
1285120347571,110.003
1285120407571,109.904
1285120467571,109.962
1285120527571,110.142
1285120587571,109.941
1285120647571,109.869
1285120707571,109.961
1285120767571,109.875
1285120827582,109.924
1285120887582,110.112
1285120947582,109.947
1285121007582,110.028
1285121067582,110.153
1285121127582,109.946
1285121187582,110.128
1285121247582,110.202
1285121307582,109.933
1285121367582,110.030
1285121427582,110.189
1285121487582,110.107
1285121547582,110.016
1285121607582,110.050
1285121667582,110.174
1285121727582,110.030
1285121787582,110.099
1285121847582,110.191
1285121907582,110.040
1285121967582,109.940
1285122027582,109.916
1285122087582,110.131
1285122147582,110.070
1285122207582,110.045
1285122267582,110.084
1285122327582,109.997
1285122387582,110.167
1285122447582,110.191
1285122507582,109.895
1285122567582,110.055
1285122627582,109.834
1285122687582,110.100
1285122747582,109.881
1285122807582,109.927
1285122867582,109.894
1285122927582,109.556
1285122987582,109.950
1285123047582,109.999
1285123107582,109.698
1285123167582,109.914
1285123227582,109.985
1285123287582,109.742
1285123347582,109.718
1285123407582,109.666
1285123467582,109.879
1285123527582,109.886
1285123587582,109.862
1285123647582,109.769
1285123707582,109.962
1285123767582,109.756
1285123827582,109.784
1285123887582,109.908
1285123947582,110.173
1285124007582,109.861
1285124067582,110.030
1285124127582,109.979
1285124187582,109.820
1285124247582,110.229
1285124307582,110.109
1285124367582,109.970
1285124427578,109.750
1285124487578,109.913
1285124547578,110.063
1285124607578,110.022
1285124667578,109.840
1285124727578,109.905
1285124787578,110.139
1285124847578,109.908
1285124907578,109.951
1285124967578,109.831
1285125027578,110.119
1285125087578,109.912
1285125147578,109.856
1285125207578,109.970
1285125267578,109.781
1285125327578,110.051
1285125387578,109.825
1285125447578,109.872
1285125507578,110.037
1285125567578,109.940
1285125627578,109.731
1285125687578,109.794
1285125747578,109.918
1285125807578,110.150
1285125867578,109.875
1285125927578,109.816
1285125987578,109.880
1285126047578,109.827
1285126107578,109.725
1285126167578,109.742
1285126227578,109.804
1285126287578,109.888
1285126347578,109.917
1285126407578,109.828
1285126467578,109.939
1285126527578,109.907
1285126587578,109.832
1285126647578,109.724
1285126707578,109.800
1285126767578,109.753
1285126827578,109.736
1285126887578,109.904
1285126947578,109.621
1285127007578,109.531
1285127067578,109.627
1285127127578,109.841
1285127187578,109.639
1285127247578,109.775
1285127307578,109.746
1285127367578,109.827
1285127427578,109.899
1285127487578,109.738
1285127547578,109.992
1285127607578,109.823
1285127667578,109.765
1285127727578,109.874
1285127787578,109.770
1285127847578,109.756
1285127907578,109.672
1285127967578,109.702
1285128027588,109.414
1285128087588,109.525
1285128147588,109.497
1285128207588,109.615
1285128267588,109.612
1285128327588,109.604
1285128387588,109.584
1285128447588,109.643
1285128507588,109.435
1285128567588,109.501
1285128627588,109.575
1285128687588,109.621
1285128747588,109.575
1285128807588,109.521
1285128867588,109.556
1285128927588,109.530
1285128987588,109.428
1285129047588,109.273
1285129107588,109.348
1285129167588,109.474
1285129227588,109.315
1285129287588,109.218
1285129347588,109.353
1285129407588,109.196
1285129467588,109.311
1285129527588,109.379
1285129587588,109.339
1285129647588,109.193
1285129707588,109.178
1285129767588,108.960
1285129827588,109.127
1285129887588,109.253
1285129947588,109.142
1285130007588,109.106
1285130067588,109.178
1285130127588,109.329
1285130187588,109.009
1285130247588,109.365
1285130307588,108.982
1285130367588,109.265
1285130427588,109.043
1285130487588,109.236
1285130547588,109.199
1285130607588,109.377
1285130667588,109.207
1285130727588,109.225
1285130787588,109.233
1285130847588,109.031
1285130907588,109.185
1285130967588,109.078
1285131027588,109.023
1285131087588,109.163
1285131147588,109.080
1285131207588,108.865
1285131267588,109.118
1285131327588,109.077
1285131387588,109.019
1285131447588,108.907
1285131507588,109.069
1285131567588,109.041
1285131627598,109.026
1285131687598,109.103
1285131747598,108.954
1285131807598,108.943
1285131867598,108.780
1285131927598,108.894
1285131987598,109.040
1285132047598,109.122
1285132107598,108.992
1285132167598,108.987
1285132227598,108.933
1285132287598,108.471
1285132887598,109.033
1285132947598,109.109
1285133007598,109.016
1285133067598,109.439
1285133127598,109.070
1285133187598,109.196
1285133247598,109.284
1285133307598,109.334
1285133367598,109.315
1285133427598,109.131
1285133487598,109.424
1285133547598,109.161
1285133607598,109.343
1285133667598,109.380
1285133727598,109.226
1285133787598,109.408
1285133847598,109.284
1285133907598,109.416
1285133967598,109.229
1285134027598,109.315
1285134087598,109.408
1285134147598,109.297
1285134207598,109.331
1285134267598,109.357
1285134327598,109.512
1285134387598,109.693
1285134447598,109.551
1285134507598,109.645
1285134567598,109.286
1285134627598,109.536
1285134687598,109.470
1285134747598,109.598
1285134807598,109.780
1285134867598,109.860
1285134927598,109.784
1285134987598,109.653
1285135047598,109.599
1285135107598,109.548
1285135167598,109.719
1285135227608,109.603
1285135287608,109.487
1285135347608,109.614
1285135407608,109.877
1285135467608,109.567
1285135527608,109.801
1285135587608,109.740
1285135647608,109.539
1285135707608,109.750
1285135767608,109.364
1285148727637,109.291
1285148787637,109.675
1285148847637,109.767
1285148907637,109.694
1285148967637,109.925
1285149027637,109.791
1285149087637,109.836
1285149147637,109.568
1285149207637,109.761
1285149267637,109.861
1285149327637,109.702
1285149387637,109.708
1285149447637,109.740
1285149507637,109.839
1285149567637,109.622
1285149627647,109.740
1285149687647,109.874
1285149747647,109.768
1285149807647,109.851
1285149867647,109.777
1285149927647,109.579
1285149987647,110.144
1285150047647,109.646
1285150107647,109.771
1285150167647,109.944
1285150227647,109.743
1285150287647,109.773
1285150347647,109.699
1285150407647,109.641
1285150467647,109.706
1285150527647,110.016
1285150587647,109.683
1285150647647,109.945
1285150707647,109.795
1285150767647,109.843
1285150827647,109.854
1285150887647,109.676
1285150947647,109.729
1285151007647,109.718
1285151067647,109.681
1285151127647,109.570
1285151187647,109.707
1285151247647,109.659
1285151307647,109.601
1285151367647,109.758
1285151427647,109.508
1285151487647,109.667
1285151547647,109.511
1285151607647,109.572
1285151667647,109.679
1285151727647,109.848
1285151787647,109.640
1285151847647,109.764
1285151907647,109.749
1285151967647,109.653
1285152027647,109.810
1285152087647,109.625
1285152147647,109.727
1285152207647,109.685
1285152267647,109.731
1285152327647,109.820
1285152387647,109.636
1285152447647,109.638
1285152507647,109.736
1285152567647,109.669
1285152627647,109.670
1285152687647,109.664
1285152747647,109.846
1285152807647,109.553
1285152867647,109.827
1285152927647,109.750
1285152987647,109.769
1285153047647,109.890
1285153107647,109.624
1285153167647,109.696
1285153227658,109.803
1285153287658,109.607
1285153347658,109.603
1285153407658,109.892
1285153467658,109.746
1285153527658,109.868
1285153587658,109.539
1285153647658,109.766
1285153707658,109.723
1285153767658,109.899
1285153827658,109.784
1285153887658,109.969
1285153947658,109.842
1285154007658,110.114
1285154067658,109.837
1285154127658,109.912
1285154187658,109.720
1285154247658,109.961
1285154307658,109.905
1285154367658,109.917
1285154427658,110.091
1285154487658,109.949
1285154547658,109.981
1285154607658,109.791
1285154667658,110.004
1285154727658,110.040
1285154787658,110.216
1285154847658,110.160
1285154907658,110.008
1285154967658,110.173
1285155027658,110.001
1285155087658,110.222
1285155147658,110.108
1285155207658,110.057
1285155267658,110.019
1285155327658,110.314
1285155387658,109.952
1285155447658,110.079
1285155507658,110.360
1285155567658,110.408
1285155627658,110.320
1285155687658,110.227
1285155747658,110.275
1285155807658,110.367
1285155867658,110.516
1285155927658,110.115
1285155987658,110.223
1285156047658,110.286
1285156107658,110.524
1285156167658,110.304
1285156227658,110.487
1285156287658,110.251
1285156347658,110.341
1285156407658,110.343
1285156467658,110.598
1285156527658,110.507
1285156587658,110.229
1285156647658,110.316
1285156707658,110.456
1285156767658,110.602
1285156827669,110.519
1285156887669,110.736
1285156947669,110.541
1285157007669,110.334
1285157067669,110.711
1285157127669,110.450
1285157187669,110.626
1285157247669,110.186
1285157307669,110.506
1285157367669,110.286
1285157427669,110.439
1285157487669,110.576
1285157547669,110.607
1285157607669,110.650
1285157667669,110.373
1285157727669,110.393
1285157787669,110.445
1285157847669,110.408
1285157907669,110.508
1285157967669,110.511
1285158027669,110.698
1285158087669,110.433
1285158147669,110.380
1285158207669,110.448
1285158267669,110.438
1285158327669,110.536
1285158387669,110.577
1285158447669,110.338
1285158507669,110.415
1285158567669,110.253
1285158627669,110.855
1285158687669,110.446
1285158747669,110.533
1285158807669,110.422
1285158867669,110.536
1285158927669,110.546
1285158987669,110.522
1285159047669,110.441
1285159107669,110.423
1285159167669,110.476
1285159227669,110.354
1285159287669,110.393
1285159347669,110.452
1285159407669,110.619
1285159467669,110.698
1285159527669,110.641
1285159587669,110.602
1285159647669,110.196
1285159707669,110.451
1285159767669,110.381
1285159827669,110.661
1285159887669,110.875
1285159947669,110.675
1285160007669,110.751
1285160067669,110.373
1285160127669,110.307
1285160187669,110.579
1285160247669,110.565
1285160307669,110.469
1285160367669,110.649
1285160427680,110.561
1285160487680,110.614
1285160547680,110.726
1285160607681,110.611
1285160667681,110.502
1285160727681,110.535
1285160787681,110.706
1285160847681,110.605
1285160907681,110.481
1285160967681,110.702
1285161027681,110.834
1285161087681,110.768
1285161147681,110.735
1285161207681,110.569
1285161267681,110.718
1285161327681,110.863
1285161387681,111.009
1285161447681,110.710
1285161507681,110.772
1285161567680,110.669
1285161627680,110.609
1285161687680,110.722
1285161747680,110.472
1285161807680,110.949
1285161867680,110.778
1285161927681,110.592
1285161987681,110.650
1285162047681,110.862
1285162107681,110.770
1285162167681,110.776
1285162227681,110.761
1285162287681,110.684
1285162347681,110.752
1285162407681,110.721
1285162467681,110.828
1285162527681,110.759
1285162587681,110.886
1285162647681,110.893
1285162707681,110.757
1285162767681,110.872
1285162827681,110.803
1285162887681,110.922
1285162947680,110.784
1285163007680,110.817
1285163067680,110.841
1285163127680,111.066
1285163187680,110.852
1285163247680,110.972
1285163307681,111.142
1285163367681,110.853
1285163427681,110.876
1285163487681,110.996
1285163547681,110.927
1285163607681,110.895
1285163667681,111.104
1285163727681,110.708
1285163787681,110.996
1285163847681,110.997
1285163907681,111.002
1285163967681,111.001
1285164027692,110.800
1285164087692,110.934
1285164147692,110.977
1285164207692,111.061
1285164267692,110.984
1285164327692,110.960
1285164387692,110.973
1285164447692,110.816
1285164507692,110.997
1285164567692,110.849
1285164627692,111.108
1285164687692,110.927
1285164747692,111.258
1285164807692,111.162
1285164867692,111.148
1285164927692,110.935
1285164987692,110.998
1285165047692,111.034
1285165107692,111.070
1285165167692,111.107
1285165227692,111.125
1285165287692,111.225
1285165347692,111.183
1285165407692,111.101
1285165467692,110.804
1285165527692,111.224
1285165587692,110.989
1285165647692,111.516
1285165707692,111.053
1285165767692,110.999
1285165827692,111.236
1285165887692,111.316
1285165947692,111.030
1285166007692,111.132
1285166067692,110.975
1285166127692,111.243
1285166187692,111.038
1285166247692,111.294
1285166307692,110.996
1285166367692,111.210
1285166427692,110.958
1285166487692,111.015
1285166547692,111.041
1285166607692,111.011
1285166667692,110.868
1285166727692,111.084
1285166787692,111.021
1285166847692,111.132
1285166907692,110.937
1285166967692,110.731
1285167027692,110.811
1285167087692,110.855
1285167147692,110.671
1285167207692,110.843
1285167267692,110.804
1285167327692,110.837
1285167387692,110.739
1285167447692,111.098
1285167507692,110.747
1285167567692,110.803
1285167627704,110.986
1285167687704,111.081
1285167747704,110.963
1285167807704,110.819
1285167867704,110.889
1285167927704,110.855
1285167987704,111.080
1285168047704,110.980
1285168107704,111.038
1285168167704,110.835
1285168227704,110.926
1285168287704,110.952
1285168347704,110.979
1285168407704,111.096
1285168467704,111.054
1285168527704,110.830
1285168587704,111.010
1285168647704,110.992
1285168707704,110.782
1285168767704,110.681
1285168827704,110.856
1285168887704,110.887
1285168947704,110.791
1285169007704,110.808
1285169067704,110.574
1285169127704,110.723
1285169187704,110.678
1285169247704,110.791
1285169307704,110.526
1285169367704,110.605
1285169427704,110.631
1285169487704,110.672
1285169547704,110.421
1285169607704,110.688
1285169667704,110.518
1285169727704,110.588
1285169787704,110.797
1285169847704,110.539
1285169907704,110.614
1285169967704,110.483
1285170027704,110.774
1285170087704,110.616
1285170147704,110.554
1285170207704,110.448
1285170267704,110.524
1285170327704,110.412
1285170387704,110.537
1285170447704,110.744
1285170507704,110.533
1285170567704,110.537
1285170627704,110.553
1285170687704,110.256
1285170747704,110.397
1285170807704,110.550
1285170867704,110.603
1285170927704,110.291
1285170987704,110.574
1285171047704,110.727
1285171107704,110.534
1285171167704,110.492
1285171227716,110.694
1285171287716,110.508
1285171347716,110.590
1285171407716,110.495
1285171467716,110.338
1285171527716,110.371
1285171587716,110.791
1285171647716,110.595
1285171707716,110.373
1285171767716,110.698
1285171827716,110.337
1285171887716,110.722
1285171947716,110.827
1285172007716,110.504
1285172067716,110.743
1285172127716,110.366
1285172187716,110.663
1285172247716,110.503
1285172307716,110.785
1285172367716,110.527
1285172427716,110.477
1285172487716,110.608
1285172547716,110.633
1285172607716,110.624
1285172667716,110.716
1285172727716,110.721
1285172787716,110.585
1285172847716,110.908
1285172907716,110.582
1285172967716,110.648
1285173027716,110.632
1285173087716,110.787
1285173147716,110.598
1285173207716,110.692
1285173267716,110.731
1285173327716,110.796
1285173387716,110.809
1285173447716,110.730
1285173507716,110.725
1285173567716,110.446
1285173627716,110.675
1285173687716,110.566
1285173747716,110.637
1285173807716,110.499
1285173867716,110.532
1285173927716,110.406
1285173987716,110.984
1285174047716,110.565
1285174107716,110.524
1285174167716,110.554
1285174227716,110.564
1285174287716,110.555
1285174347716,110.446
1285174407716,110.503
1285174467716,110.281
1285174527716,110.628
1285174587716,110.715
1285174647716,110.478
1285174707716,110.591
1285174767716,110.652
1285174827729,110.751
1285174887729,110.643
1285174947729,110.877
1285175007729,110.596
1285175067729,110.700
1285175127729,110.598
1285175187729,110.904
1285175247729,111.028
1285175307729,110.735
1285175367729,110.677
1285175427729,110.677
1285175487729,110.733
1285175547729,110.803
1285175607729,113.101
1285175667729,110.588
1285175727729,112.505
1285175787729,110.718
1285175847729,110.858
1285175907729,110.693
1285175967729,110.871
1285176027729,110.699
1285176087729,110.587
1285176147729,110.582
1285176207729,110.717
1285176267729,110.702
1285176327729,110.756
1285176387729,110.777
1285176447729,110.816
1285176507729,110.739
1285176567729,110.737
1285176627729,111.170
1285176687729,110.794
1285176747729,110.695
1285176807729,110.924
1285176867729,110.790
1285176927729,111.030
1285176987729,110.864
1285177047729,111.064
1285177107729,110.938
1285177167729,110.952
1285177227729,111.033
1285177287729,111.614
1285177347729,111.187
1285177407729,111.099
1285177467729,111.095
1285177527729,111.221
1285177587729,110.935
1285177647729,111.378
1285177707729,111.035
1285177767729,110.984
1285177827729,111.292
1285177887729,111.180
1285177947729,111.170
1285178007729,111.302
1285178067729,111.426
1285178127729,111.410
1285178187729,111.354
1285178247729,111.306
1285178307729,111.359
1285178367729,111.434
1285178427741,111.337
1285178487741,111.238
1285178547741,111.450
1285178607741,111.361
1285178667741,111.281
1285178727741,111.246
1285178787741,111.385
1285178847741,111.394
1285178907741,111.404
1285178967741,111.235
1285179027741,111.315
1285179087741,111.482
1285179147741,111.598
1285179207741,111.469
1285179267741,111.526
1285179327741,111.726
1285179387741,111.712
1285179447741,111.644
1285179507741,111.830
1285179567741,111.630
1285179627741,111.692
1285179687741,111.824
1285179747741,111.625
1285179807741,111.709
1285179867741,111.542
1285179927741,111.839
1285179987741,111.668
1285180047741,111.673
1285180107741,112.011
1285180167741,112.010
1285180227741,111.819
1285180287741,112.159
1285180347741,112.066
1285180407741,111.976
1285180467741,111.875
1285180527741,111.844
1285180587741,111.870
1285180647741,112.192
1285180707741,112.137
1285180767741,112.127
1285180827741,112.127
1285180887741,112.006
1285180947741,112.151
1285181007741,112.218
1285181067741,112.152
1285181127741,112.433
1285181187741,112.134
1285181247741,111.987
1285181307741,112.105
1285181367741,112.136
1285181427741,112.277
1285181487741,112.210
1285181547741,112.136
1285181607741,112.027
1285181667741,112.433
1285181727741,112.462
1285181787741,112.572
1285181847741,112.288
1285181907741,112.410
1285181967741,112.344
1285182027753,112.482
1285182087753,112.170
1285182147753,112.559
1285182207753,112.521
1285182267753,112.495
1285182327753,112.451
1285182387753,112.491
1285182447753,112.504
1285182507753,112.660
1285182567753,112.470
1285182627753,112.459
1285182687753,112.605
1285182747753,112.430
1285182807753,112.361
1285182867753,112.423
1285182927753,112.322
1285182987753,112.530
1285183047753,112.593
1285183107753,112.598
1285183167753,112.414
1285183227753,112.475
1285183287753,112.453
1285183347753,112.334
1285183407753,112.520
1285183467753,112.350
1285183527753,112.513
1285183587753,112.364
1285183647753,112.257
1285183707753,112.424
1285183767753,112.428
1285183827753,112.541
1285183887753,112.476
1285183947753,112.675
1285184007753,112.691
1285184067753,112.502
1285184127753,112.248
1285184187753,112.507
1285184247753,112.511
1285184307753,112.775
1285184367753,112.664
1285184427753,112.398
1285184487753,112.586
1285184547753,112.798
1285184607753,112.600
1285184667753,112.725
1285184727753,112.709
1285184787753,112.519
1285184847753,112.457
1285184907753,112.712
1285184967753,112.364
1285185027753,112.687
1285185087753,112.350
1285185147753,112.629
1285185207753,112.497
1285185267753,112.768
1285185327753,112.399
1285185387753,112.582
1285185447753,112.546
1285185507753,112.582
1285185567753,112.536
1285185627765,112.460
1285185687765,112.406
1285185747765,112.621
1285185807765,112.498
1285185867765,112.551
1285185927765,112.578
1285185987765,112.634
1285186047765,112.634
1285186107765,112.320
1285186167765,112.714
1285186227765,112.305
1285186287765,112.580
1285186347765,112.350
1285186407765,112.350
1285186467765,112.191
1285186527765,112.543
1285186587765,112.368
1285186647765,112.269
1285186707765,112.244
1285186767765,112.329
1285186827765,112.410
1285186887765,112.177
1285186947765,112.266
1285187007765,112.309
1285187067765,112.034
1285187127765,111.988
1285187187765,112.088
1285187247765,112.076
1285187307765,112.068
1285187367765,111.969
1285187427765,111.941
1285187487765,111.994
1285187547765,112.161
1285187607765,112.094
1285187667765,112.236
1285187727765,111.881
1285187787765,112.240
1285187847765,112.167
1285187907765,112.029
1285187967765,112.111
1285188027765,112.062
1285188087765,112.134
1285188147765,111.768
1285188207765,112.189
1285188267765,112.296
1285188327765,112.002
1285188387765,111.936
1285188447765,112.116
1285188507765,111.954
1285188567765,111.928
1285188627765,112.049
1285188687765,112.008
1285188747765,112.093
1285188807765,111.970
1285188867765,112.002
1285188927765,111.810
1285188987765,112.136
1285189047765,111.911
1285189107765,112.195
1285189167765,112.205
1285189227777,111.767
1285189287777,112.148
1285189347777,112.039
1285189407777,112.095
1285189467777,112.038
1285189527777,111.887
1285189587777,111.906
1285189647777,111.923
1285189707777,112.215
1285189767777,111.946
1285189827777,112.007
1285189887777,112.002
1285189947777,112.132
1285190007777,112.110
1285190067777,111.867
1285190127777,111.939
1285190187777,111.940
1285190247777,112.082
1285190307777,111.958
1285190367777,111.994
1285190427777,111.740
1285190487777,111.987
1285190547777,111.857
1285190607777,111.991
1285190667777,112.077
1285190727777,111.950
1285190787777,111.828
1285190847777,112.228
1285190907777,111.910
1285190967777,111.951
1285191027777,111.914
1285191087777,112.027
1285191147777,112.158
1285191207777,112.045
1285191267777,111.832
1285191327777,111.894
1285191387777,111.762
1285191447777,112.059
1285191507777,111.988
1285191567777,112.167
1285191627777,112.077
1285191687777,111.774
1285191747777,111.889
1285191807777,112.167
1285191867777,111.893
1285191927777,111.957
1285191987777,111.917
1285192047777,112.027
1285192107777,111.712
1285192167777,111.851
1285192227777,111.869
1285192287777,111.855
1285192347777,111.837
1285192407777,111.955